Погода в Кюсюре

Погода в Кюсюре : погода сейчас, прогноз погоды и архив. Всё, что Вы хотите узнать о погоде в Кюсюре!

Хотите узнать прогноз погоды в Кюсюре? Тогда Вам сюда: Погода в Кюсюре

Поиск расширенной информации на нашем сайте:

Другие новости

Новости СМИ2

Главная страница сайта

Новости сайта

03.07.2017

Напоминаем, что на нашем специализированном сайте Метеоцентр.Азия вы можете получить высокодетализированные автоматические прогнозы погоды по пунктам России, СНГ и мира в авиационном формате (включающие направление и скорость ветра, видимость, явления погоды, количество и форму облачности, нижнюю и верхнюю границу облачности).


Погода в Кюсюре - сегодня

Время (UTC), дата Ветер
(°,м/с) 
Видим.   Явления Облачность Т
(°С)
Тd
(°С)
f(%) Тe
(°С)
Pmin
(гПа)
dP
(гПа)
Po
(мм)
O2
(г/м3)
Тmin Tmax R s Состояние
почвы
06 18.07.17 040 (СВ) 20000 м    8/6 600 м средняя 
[Sc diur, vesp|Ac trans]
+13.6 +4.2 53 +13  1005.6  -0.4  751  288           
09 18.07.17 320 (СЗ) 20000 м    9/8 1000 м средняя 
[Sc|Ac trans]
+11.6 +0.8 47 +11  1006.3  0.7  752  290           
12 18.07.17 300 (СЗ) 20000 м    9/9 1000 м 
[Sc]
+10.8 +1.5 53 +10  1005.8  -0.5  751  291    +14.7       
15 18.07.17 340 (С) 5-10{12}  20000 м  {дождь}  9/6 1000 м средняя 
[Sc|Ac trans]
+6 +0.9 70 +4  1006.5  0.6  752  296           
18 18.07.17 330 (СЗ) 1{10}  20000 м  {дождь}  10/10 1000 м 
[Sc]
+3.8 -1.4 69 +5  1006.4  -0.1  752  299           
21 18.07.17 280 (З) 20000 м    10/10 1000 м 
[Sc]
+4.4 -0.7 69 +4  1006.3  -0.1  752  298           
00 19.07.17 310 (СЗ) 20000 м    10/10 1000 м 
[Sc]
+4.6 -0.2 71 +3  1006.7  0.4  752  298  +3.5    0.0    влажная 
03 19.07.17 350 (С) 20000 м    10/8 1000 м средняя 
[Sc|Ac und]
+5.6 -0.1 67 +5  1007.4  0.7  752  297           
06 19.07.17 340 (С) 20000 м    9/9 1000 м 
[Sc]
+6.2 +0.3 66 +5  1008.6  1.2  753  297           
09 19.07.17 010 (С) 20000 м  осадки на расстоянии  8/8 600 м кучево-дожд. 
[Cb cap]
+6.8 +1 66 +5  1009.6  754  296           
12 19.07.17 350 (С) 20000 м  осадки на расстоянии  10/8 600 м кучево-дожд., средняя 
[Cb cap|Ac und]
+5.9 +0.5 68 +4  1010.9  1.2  755  298    +7.5       
15 19.07.17 350 (С) 20000 м  {ливн. осадки}  10/10 1000 м 
[Sc]
+4.2 +0.5 77 +2  1011.6  0.7  755  300           
18 19.07.17 350 (С) 20000 м  {ливн. осадки}  10/10 1000 м 
[Sc]
+3.7 +0.6 80 +2  1012.5  0.9  756  301           
21 19.07.17 010 (С) 20000 м    8/8 1000 м 
[Sc]
+3.8 +0.4 78 +1  1013.7  1.2  757  301           
00 20.07.17 340 (С) 20000 м    10/10 1000 м 
[Sc]
+4.8 -0.2 70 +4  1015.2  1.5  758  300  +3.5    0.1    влажная 
03 20.07.17 350 (С) 20000 м    10/10 1000 м 
[Sc]
+5.6 +2.1 78 +4  1016.1  0.9  759  299           
06 20.07.17 330 (СЗ) 20000 м  {дождь}  10/10 1000 м 
[Sc]
+5.9 +3.3 83 +4  1017.6  1.5  760  299           
09 20.07.17 320 (СЗ) 20000 м    10/10 1000 м 
[Sc]
+6.6 +3 78 +5  1018.8  1.2  761  299           
12 20.07.17 310 (СЗ) 20000 м    8/8 1000 м 
[Sc]
+5.9 +1.1 71 +6  1019.5  0.7  761  300    +6.7  0.0     
15 20.07.17 330 (СЗ) 20000 м    9/9 1000 м 
[Sc]
+5.4 +1.9 78 +4  1019.2  -0.3  761  300           
18 20.07.17 330 (СЗ) 20000 м    9/9 1000 м 
[Sc]
+5.1 +1.6 78 +6  1019  -0.2  761  301           
21 20.07.17 330 (СЗ) 20000 м    9/9 1000 м 
[Sc]
+4.8 +1.2 77 +4  1018.9  -0.1  761  301           
00 21.07.17 310 (СЗ) 20000 м    9/4 600 м средняя 
[Sc|Ac trans]
+5.6 +1.3 74 +6  1018.8  -0.1  761  300  +4.2        влажная 
03 21.07.17 150 (ЮВ) 20000 м    9/9 600 м 
[Sc]
+8.2 +2.2 66 +9  1018  -0.7  760  297           
06 21.07.17 270 (З) 20000 м    8/8 1000 м 
[Sc]
+11.4 +4.3 62 +12  1016.8  -1.2  759  293           
Время (UTC), дата Ветер
(°,м/с) 
Видим.   Явления Облачность Т
(°С)
Тd
(°С)
f(%) Тe
(°С)
Pmin
(гПа)
dP
(гПа)
Po
(мм)
O2
(г/м3)
Тmin Tmax R s Состояние
почвы

Для получения пояснительной информации подведите курсор к названию столбца.

ПОГОДА в Кюсюре - архив

Всё, что Вы хотите узнать о погоде в Кюсюре - удобно и подробно!

Выберите нужную дату (начиная с 1 января 2015* года) и нажмите кнопку "Найти".
Будут отображены архивные сводки погоды по пункту Кюсюр, начиная с указанной даты.


Отображать данные в формате CSV (для использования в таблицах Excel)


Внимание! Наш архив погоды предназначен исключительно для личного некоммерческого использования в познавательных целях. Если Вам необходимы официальные справки о состоянии погоды (для производственных, юридических, коммерческих и т.п. целей), обращайтесь в органы Росгидромета.

*Примечание: данная дата относится к архиву по метеостанциям СССР (Россия, СНГ, Балтия).
Архив по метеостанциям Зарубежной Европы и Азии (кроме Китая) хранится 10 дней, по другим регионам земного шара (Китай, Африка, Америка, Австралия, Океания) - 1 день.

Кюсюр - район местоположения метеостанции


Название, широта, долгота, высота метеостанции:
Кюсюр 70.7°ш. 127.4°д. 33 м над ур. моря [Российская Федерация]

Дополнительная информация

В oтличие oт бoльшинства пoгoдных сайтoв мы публикуем пoдрoбную метеoинфoрмацию в детальнoм прoфессиoнальнoм фoрмате.

Характеристики температуры и влажнoсти вoздуха измеряются на высoте 2 м в тени вдали oт зданий и деревьев.
Скoрoсть ветра измеряется на высoте 10 м (на урoвне рoста челoвека скoрoсть ветра ниже в 1.5-2 раза). Если метеoстанция нахoдится в гoрoде или в лесу, тo скoрoсть ветра занижена на 2-4 м/с пo сравнению с oткрытым местoм. Скoрoсть ветра над акватoриями крупных рек и oзёр, а также на вершинах хoлмoв на 2-5 м/с выше, чем в oбычных услoвиях.
Атмoсфернoе давление в разных тoчках местнoсти мoжет значительнo oтличаться oт давления на метеoстанции, в зависимoсти oт услoвий рельефа (при пoдъёме на 10 м давление пoнижается примернo на 1 мм рт.ст.).